Regional Weather Roundup
Issued by NWS Charleston, SC

Current Version | Previous Version | Graphics & Text | Print | Product List | Glossary On
Versions: 1 2 3 4 5 6 7 8 9 10 11 12 13 14 15 16 17 18 19 20 21 22 23 24 25 26 27 28 29 30 31 32 33 34 35 36 37 38 39 40 41 42 43 44 45 46 47 48 49 50
000
ASUS42 KCHS 261927
RWRCHS

REGIONAL WEATHER ROUNDUP
NATIONAL WEATHER SERVICE CHARLESTON SC
300 PM EDT SUN APR 26 2015

NOTE: "FAIR" INDICATES FEW OR NO CLOUDS BELOW 12,000 FEET WITH NO
SIGNIFICANT WEATHER AND/OR OBSTRUCTIONS TO VISIBILITY.

NOT ALL STATIONS ARE QUALITY CONTROLLED BY THE NATIONAL
WEATHER SERVICE. USE DATA WITH CAUTION...ESPECIALLY
DEWPOINT OBSERVATIONS.

SCZ027-030-031-034>040-042>050-262000-
...SOUTHEAST SOUTH CAROLINA...

CITY           SKY/WX    TMP DP  RH WIND       PRES   REMARKS
N CHARLESTON   MOSUNNY   86  59  39 W12G26    29.60F
WATERFRONT PRK   N/A     86 N/A N/A W12G20      N/A
MOUNT PLEASANT FAIR      86  61  42 MISG      29.59F
PINOPOLIS      NOT AVBL
MONCKS CORNER  MOCLDY    86  61  42 W3        29.58F
SUMMERVILLE    FAIR      86  61  42 W14G23    29.59F
BEAUFORT MCAS  MOSUNNY   86  62  44 W16G25    29.62F
BEAUFORT ARPT  FAIR      88  64  45 W21G28    29.62F
HILTON HEAD IS MOSUNNY   86  64  48 SW12G21   29.64F
WALTERBORO     PTCLDY    86  54  32 W21       29.61F
ALLENDALE      FAIR      84  59  42 W12G17    29.61F

...SOUTHERN MIDLANDS AND PEE DEE...

CITY           SKY/WX    TMP DP  RH WIND       PRES   REMARKS
GEORGETOWN     NOT AVBL
KINGSTREE      NOT AVBL
ORANGEBURG     MOSUNNY   86  58  38 W16G24    29.59F
BARNWELL       FAIR      86  61  42 W13G21    29.62S
AIKEN          FAIR      82  54  36 W18G24    29.65S
MANNING        MOCLDY    79  52  38 N13       29.59R
COLUMBIA       MOSUNNY   85  57  38 W18G26    29.57F
SUMTER         SUNNY     73  60  64 NE13G20   29.60S
FLORENCE       CLOUDY    61  53  75 NE13      29.66S
MYRTLE BEACH   MOSUNNY   72  57  60 N17       29.64S
N MYRTLE BEACH MOSUNNY   67  56  67 N12G20    29.64R

$$

GAZ063-065-086>088-099>101-113>116-118-119-134>141-150-262000-
...SOUTHEAST GEORGIA...

CITY           SKY/WX    TMP DP  RH WIND       PRES   REMARKS
SAVANNAH ARPT  MOSUNNY   86  60  41 W13       29.64F
HUNTER AAF     SUNNY     86  64  46 W17       29.62F
FORT STEWART   SUNNY     86  57  37 W20       29.63F
STATESBORO       N/A     85  63  46 W13G18    29.64F
SYLVANIA       CLEAR     84  64  49 NW12      29.64F
CLAXTON        FAIR      86  61  42 W17       29.65F

...CSRA...CENTRAL AND FAR SOUTHEAST GEORGIA...

CITY           SKY/WX    TMP DP  RH WIND       PRES   REMARKS
THOMSON        MOSUNNY   83  66  55 W10       29.66F
AUGUSTA-BUSH   MOSUNNY   83  60  45 W13G18    29.61F
AUGUSTA-DANIEL MOSUNNY   83  60  45 W10G20    29.63F
SWAINSBORO     NOT AVBL
VIDALIA        SUNNY     86  59  39 W10G22    29.66F
EASTMAN        FAIR      85  61  43 W10G18    29.70F
HAZLEHURST     FAIR      87  53  31 W7G21     29.67F
ALMA           SUNNY     86  58  38 W14G20    29.68F
WAYCROSS       SUNNY     91  64  40 W14       29.67F HX  92
JESUP          FAIR      90  61  37 NW17G23   29.67F
BAXLEY         FAIR      88  55  33 W16G22    29.67F
BRUNSWICK      SUNNY     90  54  29 W15       29.67F
SAINT SIMONS   SUNNY     87  59  38 W14G23    29.67F

$$

SCZ027-028-034-036>038-045-046-048>050-GAZ119-141-262000-
...LAKE AND SUPPLEMENTAL COASTAL OBSERVATIONS...

STATION/POSITION TIME  TEMP    WIND        PRES    WAVE   SWELL
                       AIR SEA DIR/SP/G            HT/PER HT/PER/DIR
                 (UTC) (F)     (DEG/KT/KT) (MB)    (FT/S) (FT/S/D)
UPR LAKE MARION  NOT AVBL
WINYAH BAY       1800   80     270/  8     1001.0
LAKE MURRAY      1800   79     270/  9/ 20 1001.7F
ACE BASIN NERRS  1800   82     240/  5     1003.0F
FORT PULASKI     1900   83 70  270/ 16/ 20 1004.1F
SAPELO ISLAND    1900   86     270/ 14     1004.0F

$$

ANZ835-935-AMZ111-154-330-350-352-354-370-450-454-472-262000-
...C-MAN AND BUOY OBSERVATIONS...

STATION/POSITION TIME  TEMP    WIND        PRES    WAVE   SWELL
                       AIR SEA DIR/SP/G            HT/PER HT/PER/DIR
                 (UTC) (F)     (DEG/KT/KT) (MB)    (FT/S) (FT/S/D)
BUOY 41004       1850   72 72  240/ 16/ 19 1002.3F   5/ 6   2/11
BUOY 41008       1850   73 71  190/ 10/ 12 1004.7F   2/ 5   2/140/ 5
FOLLY BEACH CMAN 1900   74     220/ 15/ 18 1002.6F
CAPERS NEARSHORE 1808   72     230/ 14/ 17 1002.6F
FRIPP NEARSHORE  1800   74     220/ 10/ 12 1003.7


STATION/POSITION TIME  TEMP    WIND        PRES    WAVE   SWELL
                       AIR SEA DIR/SP/G            HT/PER HT/PER/DIR
                 (UTC) (F)     (DEG/KT/KT) (MB)    (FT/S) (FT/S/D)
5E ST. MARYS GA  1821      72                N/A     1/ 5
FRYING PAN BUOY  1850   64 72   20/ 14/ 17 1003.9R   4/ 6   3/220/ 6
BUOY 41025       1850   55 76  360/ 25/ 31 1002.0R   7/ 8
CAPE LOOKOUT NC  1900   56     350/ 14/ 16 1003.7R
BUOY 41002       1850   73 71  270/ 16/ 19 1002.0F   8/ 8   5/ 80/13
BUOY 41010       1820   79 79  260/ 17/ 21 1007.5F
ST AUGUSTINE FL  1900   86 68  280/ 10/ 16 1006.3F


$$



USA.gov is the U.S. government's official web portal to all federal, state and local government web resources and services.